When you browse on this site, cookies collect data to enhance your experience and personalize the content and advertising you see.
Visit our Privacy Policy to learn more. By continuing to use the site, you agree to this use of cookies and data.
  • In Czech Republic
  • List of Countries
  • For 7 days
  • Water Temperature
  • Satellite Maps
  • Weather Map
  • Weather Widgets
  • user-avatar
    Login

    Hourly Weather Warren

    Today, 23 July, Tuesday

    Time Temperature Precipitation Wind Pressure Humidity
    00:00 +18°C° 0 mm 3 mps 735 mmHg 91%
    01:00 +17°C° 0 mm 3 mps 735 mmHg 92%
    02:00 +17°C° 0 mm 3 mps 735 mmHg 92%
    03:00 +17°C° 0 mm 3 mps 735 mmHg 92%
    04:00 +16°C° 0 mm 3 mps 734 mmHg 92%
    05:00 +17°C° 0 mm 2 mps 735 mmHg 90%
    06:00 +17°C° 0 mm 2 mps 735 mmHg 87%
    07:00 +18°C° 0 mm 2 mps 736 mmHg 85%
    08:00 +19°C° 0 mm 3 mps 736 mmHg 77%
    09:00 +21°C° 0 mm 3 mps 736 mmHg 69%
    10:00 +22°C° 0 mm 4 mps 736 mmHg 61%
    11:00 +23°C° 0 mm 4 mps 736 mmHg 59%
    12:00 +23°C° 0 mm 4 mps 736 mmHg 56%
    13:00 +25°C° 0 mm 4 mps 736 mmHg 53%
    14:00 +25°C° 0 mm 3 mps 736 mmHg 55%
    15:00 +25°C° 0 mm 3 mps 736 mmHg 56%
    16:00 +24°C° 0 mm 3 mps 736 mmHg 58%
    17:00 +22°C° 0 mm 3 mps 736 mmHg 63%
    18:00 +21°C° 0 mm 3 mps 736 mmHg 69%
    19:00 +19°C° 0 mm 2 mps 736 mmHg 75%
    20:00 +18°C° 0 mm 2 mps 736 mmHg 76%
    21:00 +16°C° 0 mm 1 mps 736 mmHg 78%
    22:00 +15°C° 0 mm 1 mps 736 mmHg 80%
    23:00 +15°C° 0 mm 1 mps 736 mmHg 81%

    Tomorrow, 24 July, Wednesday

    Time Temperature Precipitation Wind Pressure Humidity
    00:00 +15°C° 0 mm 1 mps 737 mmHg 82%
    01:00 +13°C° 0 mm 0 mps 737 mmHg 82%
    02:00 +14°C° 0 mm 1 mps 737 mmHg 84%
    03:00 +14°C° 0 mm 1 mps 737 mmHg 86%
    04:00 +14°C° 0 mm 1 mps 737 mmHg 87%
    05:00 +15°C° 0 mm 1 mps 737 mmHg 86%
    06:00 +16°C° 0 mm 1 mps 737 mmHg 85%
    07:00 +18°C° 0 mm 1 mps 738 mmHg 83%
    08:00 +20°C° 0.1 mm 1 mps 738 mmHg 77%
    09:00 +22°C° 0.1 mm 1 mps 738 mmHg 71%
    10:00 +23°C° 0.1 mm 1 mps 739 mmHg 65%
    11:00 +24°C° 0.4 mm 1 mps 739 mmHg 63%
    12:00 +25°C° 0.4 mm 2 mps 739 mmHg 61%
    13:00 +25°C° 0.4 mm 2 mps 739 mmHg 58%
    14:00 +25°C° 0.4 mm 2 mps 738 mmHg 63%
    15:00 +24°C° 0.4 mm 2 mps 738 mmHg 67%
    16:00 +24°C° 0.4 mm 3 mps 738 mmHg 71%
    17:00 +23°C° 0.1 mm 2 mps 738 mmHg 74%
    18:00 +21°C° 0.1 mm 2 mps 738 mmHg 77%
    19:00 +20°C° 0.1 mm 2 mps 739 mmHg 79%
    20:00 +20°C° 0 mm 1 mps 739 mmHg 81%
    21:00 +18°C° 0 mm 1 mps 739 mmHg 82%
    22:00 +16°C° 0 mm 1 mps 739 mmHg 84%
    23:00 +15°C° 0 mm 1 mps 739 mmHg 84%

    Day after tomorrow, 25 July, Thursday

    Time Temperature Precipitation Wind Pressure Humidity
    00:00 +14°C° 0 mm 0 mps 739 mmHg 84%
    01:00 +13°C° 0 mm 0 mps 739 mmHg 84%
    02:00 +13°C° 0 mm 0 mps 739 mmHg 84%
    03:00 +13°C° 0 mm 0 mps 739 mmHg 84%
    04:00 +13°C° 0 mm 0 mps 740 mmHg 84%
    05:00 +14°C° 0 mm 0 mps 740 mmHg 83%
    06:00 +15°C° 0 mm 0 mps 741 mmHg 81%
    07:00 +16°C° 0 mm 0 mps 741 mmHg 79%
    08:00 +19°C° 0 mm 0 mps 741 mmHg 74%
    09:00 +21°C° 0 mm 0 mps 742 mmHg 69%
    10:00 +23°C° 0 mm 0 mps 742 mmHg 63%
    11:00 +24°C° 0 mm 0 mps 742 mmHg 60%
    12:00 +25°C° 0 mm 0 mps 742 mmHg 56%
    13:00 +28°C° 0 mm 1 mps 741 mmHg 52%
    14:00 +28°C° 0 mm 1 mps 741 mmHg 53%
    15:00 +28°C° 0 mm 1 mps 741 mmHg 55%
    16:00 +28°C° 0 mm 1 mps 741 mmHg 56%
    17:00 +26°C° 0.1 mm 1 mps 741 mmHg 64%
    18:00 +25°C° 0.1 mm 1 mps 741 mmHg 71%
    19:00 +24°C° 0.1 mm 1 mps 741 mmHg 79%
    20:00 +22°C° 0 mm 1 mps 742 mmHg 82%
    21:00 +21°C° 0 mm 1 mps 742 mmHg 85%
    22:00 +20°C° 0 mm 1 mps 742 mmHg 88%
    23:00 +19°C° 0 mm 1 mps 742 mmHg 89%

    26 July, Friday

    Time Temperature Precipitation Wind Pressure Humidity
    00:00 +19°C° 0 mm 1 mps 742 mmHg 89%
    01:00 +18°C° 0 mm 1 mps 742 mmHg 89%
    02:00 +18°C° 0 mm 1 mps 742 mmHg 89%
    03:00 +18°C° 0 mm 1 mps 742 mmHg 90%
    04:00 +18°C° 0 mm 1 mps 741 mmHg 90%
    05:00 +19°C° 0 mm 1 mps 742 mmHg 89%
    06:00 +19°C° 0 mm 1 mps 742 mmHg 87%
    07:00 +20°C° 0 mm 1 mps 743 mmHg 85%
    08:00 +22°C° 0 mm 1 mps 743 mmHg 78%
    09:00 +24°C° 0 mm 1 mps 743 mmHg 70%
    10:00 +26°C° 0 mm 1 mps 743 mmHg 62%
    11:00 +27°C° 0 mm 2 mps 743 mmHg 59%
    12:00 +28°C° 0 mm 2 mps 743 mmHg 56%
    13:00 +29°C° 0 mm 2 mps 743 mmHg 53%
    14:00 +29°C° 0 mm 2 mps 743 mmHg 53%
    15:00 +29°C° 0 mm 2 mps 742 mmHg 54%
    16:00 +30°C° 0 mm 2 mps 742 mmHg 54%
    17:00 +28°C° 0 mm 2 mps 742 mmHg 60%
    18:00 +27°C° 0 mm 1 mps 742 mmHg 66%
    19:00 +26°C° 0 mm 1 mps 742 mmHg 72%
    20:00 +24°C° 0 mm 1 mps 742 mmHg 75%
    21:00 +21°C° 0 mm 0 mps 742 mmHg 78%
    22:00 +19°C° 0 mm 0 mps 742 mmHg 81%
    23:00 +19°C° 0 mm 0 mps 742 mmHg 81%

    27 July, Saturday

    Time Temperature Precipitation Wind Pressure Humidity
    00:00 +21°C° 0 mm 1 mps 742 mmHg 82%
    01:00 +21°C° 0 mm 1 mps 742 mmHg 83%
    02:00 +20°C° 0 mm 1 mps 742 mmHg 83%
    03:00 +20°C° 0 mm 1 mps 742 mmHg 83%
    04:00 +20°C° 0 mm 1 mps 742 mmHg 83%
    05:00 +20°C° 0 mm 1 mps 743 mmHg 82%
    06:00 +20°C° 0 mm 2 mps 743 mmHg 82%
    07:00 +21°C° 0 mm 2 mps 743 mmHg 82%
    08:00 +24°C° 0 mm 2 mps 743 mmHg 76%
    09:00 +26°C° 0 mm 2 mps 743 mmHg 71%
    10:00 +28°C° 0 mm 3 mps 744 mmHg 66%
    11:00 +28°C° 0 mm 3 mps 743 mmHg 62%
    12:00 +29°C° 0 mm 3 mps 743 mmHg 59%
    13:00 +30°C° 0 mm 4 mps 743 mmHg 55%
    14:00 +30°C° 0.1 mm 4 mps 743 mmHg 60%
    15:00 +30°C° 0.1 mm 4 mps 743 mmHg 64%
    16:00 +29°C° 0.1 mm 3 mps 743 mmHg 68%
    17:00 +28°C° 0.1 mm 3 mps 742 mmHg 72%
    18:00 +27°C° 0.1 mm 2 mps 742 mmHg 75%
    19:00 +26°C° 0.1 mm 2 mps 742 mmHg 78%
    20:00 +25°C° 0 mm 2 mps 742 mmHg 81%
    21:00 +24°C° 0 mm 2 mps 742 mmHg 83%
    22:00 +23°C° 0 mm 2 mps 743 mmHg 86%
    23:00 +21°C° 0 mm 2 mps 742 mmHg 87%

    28 July, Sunday

    Time Temperature Precipitation Wind Pressure Humidity
    00:00 +22°C° 0 mm 1 mps 742 mmHg 88%
    01:00 +21°C° 0 mm 1 mps 742 mmHg 90%
    02:00 +21°C° 0 mm 1 mps 742 mmHg 90%
    03:00 +21°C° 0 mm 1 mps 742 mmHg 91%
    04:00 +20°C° 0 mm 1 mps 743 mmHg 91%
    05:00 +21°C° 0 mm 1 mps 743 mmHg 90%
    06:00 +22°C° 0 mm 1 mps 743 mmHg 89%
    07:00 +21°C° 0 mm 2 mps 743 mmHg 88%
    08:00 +24°C° 0 mm 2 mps 743 mmHg 82%
    09:00 +26°C° 0 mm 2 mps 743 mmHg 76%
    10:00 +28°C° 0 mm 2 mps 743 mmHg 70%
    11:00 +28°C° 0.3 mm 2 mps 743 mmHg 68%
    12:00 +29°C° 0.3 mm 3 mps 742 mmHg 66%
    13:00 +29°C° 0.3 mm 3 mps 742 mmHg 64%
    14:00 +29°C° 0.3 mm 3 mps 742 mmHg 65%
    15:00 +29°C° 0.3 mm 3 mps 742 mmHg 66%
    16:00 +30°C° 0.3 mm 3 mps 741 mmHg 66%
    17:00 +28°C° 0.4 mm 3 mps 741 mmHg 72%
    18:00 +27°C° 0.4 mm 2 mps 741 mmHg 78%
    19:00 +25°C° 0.4 mm 2 mps 741 mmHg 84%
    20:00 +24°C° 0 mm 1 mps 741 mmHg 85%
    21:00 +23°C° 0 mm 1 mps 741 mmHg 87%
    22:00 +22°C° 0 mm 1 mps 741 mmHg 88%
    23:00 +22°C° 0 mm 1 mps 740 mmHg 89%
    Show more